Weather History for Shaw AFB, SC

Change the Weather History Date:

Sunday, April 21, 2013

  Actual Average Record
Temperature  
Mean Temperature 54 °F -  
Max Temperature 68 °F 73 °F 93 °F (2002)
Min Temperature 41 °F 51 °F 41 °F (2013)
Degree Days  
Heating Degree Days 10    
Growing Degree Days 4 (Base 50)    
Moisture  
Dew Point 36 °F    
Average Humidity 48    
Maximum Humidity 87    
Minimum Humidity 26    
Precipitation  
Precipitation 0.00 in - - ()
Sea Level Pressure  
Sea Level Pressure 30.34 in    
Wind  
Wind Speed 9 mph (NE)    
Max Wind Speed 18 mph    
Max Gust Speed 26 mph    
Visibility 10 miles    
Events      
Averages and records for this station are not official NWS values.
T = Trace of Precipitation, MM = Missing Value Source: NWS Daily Summary

Daily Weather History Graph

Daily Weather History Graph

Search for Another Location

Airport:

Trip Planner

Search our weather history database for the weather conditions in past years. The results will help you decide how hot, cold, wet, or windy it might be!

Date:

Astronomy

Apr. 21, 2013 Rise Set
Actual Time 6:43 AM EDT 7:58 PM EDT
Civil Twilight 6:17 AM EDT 8:24 PM EDT
Nautical Twilight 5:46 AM EDT 8:55 PM EDT
Astronomical Twilight 5:14 AM EDT 9:27 PM EDT
Moon 3:52 PM EDT 3:52 AM EDT
Length of Visible Light 14h 06m
Length of Day
13h 14m
Waxing Gibbous, 79% of the Moon is Illuminated
Apr 21
Waxing Gibbous
Apr 25
Full
May 2
Last Quarter
May 9
New
May 18
First Quarter

Hourly Weather History & Observations

Time (EDT) Temp. Windchill Dew Point Humidity Pressure Visibility Wind Dir Wind Speed Gust Speed Precip Events Conditions
12:58 AM 46.8 °F - 41.2 °F 81% 30.26 in 10.0 mi North 2.3 mph - N/A   Clear
1:58 AM 44.2 °F - 39.2 °F 82% 30.27 in 10.0 mi North 2.3 mph - N/A   Clear
2:55 AM 42.8 °F - 39.2 °F 87% 30.26 in 10.0 mi NNW 1.2 mph - N/A   Clear
3:58 AM 43.0 °F - 38.1 °F 83% 30.28 in 10.0 mi North 2.3 mph - N/A   Clear
4:58 AM 42.1 °F - 37.2 °F 83% 30.29 in 10.0 mi North 2.3 mph - N/A   Clear
5:58 AM 41.7 °F 38.0 °F 36.7 °F 82% 30.30 in 10.0 mi NNE 5.8 mph - N/A   Clear
6:58 AM 42.3 °F 39.4 °F 37.6 °F 83% 30.33 in 10.0 mi North 4.6 mph - N/A   Clear
7:58 AM 47.8 °F - 40.6 °F 76% 30.36 in 10.0 mi NNE 6.9 mph - N/A   Clear
8:58 AM 52.5 °F - 40.5 °F 64% 30.37 in 10.0 mi NNE 11.5 mph - N/A   Clear
9:58 AM 57.9 °F - 37.2 °F 46% 30.38 in 10.0 mi NNE 11.5 mph - N/A   Clear
10:58 AM 60.8 °F - 34.0 °F 37% 30.39 in 10.0 mi NE 17.3 mph - N/A   Clear
11:19 AM 62.6 °F - 33.8 °F 34% 30.38 in 10.0 mi East 12.7 mph 20.7 mph N/A   Clear
11:29 AM 62.6 °F - 33.8 °F 34% 30.38 in 10.0 mi NE 16.1 mph 23.0 mph N/A   Clear
11:45 AM 62.6 °F - 33.8 °F 34% 30.38 in 10.0 mi East 16.1 mph 20.7 mph N/A   Clear
11:58 AM 63.1 °F - 34.0 °F 34% 30.39 in 10.0 mi ENE 18.4 mph 25.3 mph N/A   Clear
12:54 PM 64.4 °F - 33.8 °F 32% 30.37 in 10.0 mi East 16.1 mph 24.2 mph N/A   Clear
12:58 PM 64.8 °F - 33.8 °F 32% 30.37 in 10.0 mi East 13.8 mph 24.2 mph N/A   Clear
1:08 PM 64.4 °F - 33.8 °F 32% 30.36 in 10.0 mi NE 18.4 mph 23.0 mph N/A   Clear
1:19 PM 66.2 °F - 33.8 °F 30% 30.36 in 10.0 mi East 16.1 mph 25.3 mph N/A   Clear
1:20 PM 66.2 °F - 33.8 °F 30% 30.36 in 10.0 mi East 17.3 mph 25.3 mph N/A   Clear
1:21 PM 66.2 °F - 33.8 °F 30% 30.36 in 10.0 mi East 17.3 mph 25.3 mph N/A   Clear
1:50 PM 66.2 °F - 32.0 °F 28% 30.36 in 10.0 mi East 15.0 mph 24.2 mph N/A   Clear
1:58 PM 66.0 °F - 33.4 °F 30% 30.36 in 10.0 mi ENE 16.1 mph 25.3 mph N/A   Clear
2:24 PM 68.0 °F - 32.0 °F 26% 30.35 in 10.0 mi East 16.1 mph 23.0 mph N/A   Clear
2:58 PM 67.3 °F - 35.4 °F 31% 30.35 in 10.0 mi NE 11.5 mph 26.5 mph N/A   Clear
3:52 PM 68.0 °F - 35.6 °F 30% 30.32 in 10.0 mi NE 13.8 mph 20.7 mph N/A   Clear
3:58 PM 67.6 °F - 35.4 °F 30% 30.33 in 10.0 mi ENE 10.4 mph 20.7 mph N/A   Clear
4:58 PM 68.0 °F - 34.5 °F 29% 30.31 in 10.0 mi ENE 12.7 mph 16.1 mph N/A   Partly Cloudy
5:58 PM 67.3 °F - 34.7 °F 30% 30.30 in 10.0 mi ENE 13.8 mph 18.4 mph N/A   Clear
6:58 PM 65.1 °F - 36.9 °F 35% 30.32 in 10.0 mi ENE 11.5 mph - N/A   Scattered Clouds
7:58 PM 59.0 °F - 39.7 °F 49% 30.34 in 10.0 mi NE 6.9 mph - N/A   Partly Cloudy
8:58 PM 55.8 °F - 40.8 °F 57% 30.35 in 10.0 mi NNE 5.8 mph - N/A   Scattered Clouds
9:58 PM 56.1 °F - 40.1 °F 55% 30.37 in 10.0 mi NE 10.4 mph - N/A   Clear
10:58 PM 55.2 °F - 39.9 °F 56% 30.37 in 10.0 mi ENE 6.9 mph - N/A   Mostly Cloudy
11:58 PM 54.0 °F - 38.5 °F 56% 30.36 in 10.0 mi ENE 11.5 mph - N/A   Clear